Voltar ao catálogo

STARLINK-5287

AtivoComunicaçõesVLEO
NORAD 55293·PAYLOAD·🇺🇸 United States

Lançado Jan 19, 2023 de Vandenberg Space Force Base

Loading…

Próximas Passagens (próximas 24 horas)

TLE

AtualizadoSource: CelesTrak SupGP

Época: Sep 15, 2026, 01:31 UTC

1 55293C 23010AA  26258.06368056 -.00011048  00000+0 -92562-3 0  2587
2 55293  70.0000 266.9596 0003260 270.2193 172.3470 14.98347692    19

Acompanhe STARLINK-5287 em tempo real com AllMySat

Download on the App Store